TimeCDT,TemperatureF,Dew PointF,Humidity,Sea Level PressureIn,VisibilityMPH,Wind Direction,Wind SpeedMPH,Gust SpeedMPH,PrecipitationIn,Events,Conditions,WindDirDegrees,DateUTC
12:15 AM,62.6,42.8,48,29.77,10.0,NE,11.5,17.3,N/A,,Clear,40,2013-04-29 05:15:00
12:35 AM,60.8,42.8,52,29.77,10.0,ENE,10.4,-,N/A,,Clear,70,2013-04-29 05:35:00
12:55 AM,60.8,42.8,52,29.78,10.0,NNE,10.4,-,N/A,,Clear,30,2013-04-29 05:55:00
1:15 AM,57.2,44.6,63,29.78,10.0,NE,9.2,-,N/A,,Clear,40,2013-04-29 06:15:00
1:35 AM,57.2,44.6,63,29.78,10.0,NNE,10.4,16.1,N/A,,Clear,30,2013-04-29 06:35:00
1:55 AM,55.4,46.4,72,29.79,10.0,NNE,10.4,-,N/A,,Clear,20,2013-04-29 06:55:00
2:15 AM,53.6,46.4,77,29.80,10.0,North,10.4,-,N/A,,Clear,10,2013-04-29 07:15:00
2:35 AM,53.6,46.4,77,29.80,10.0,NNE,9.2,18.4,N/A,,Clear,20,2013-04-29 07:35:00
2:55 AM,53.6,44.6,72,29.80,10.0,NNE,9.2,-,N/A,,Clear,20,2013-04-29 07:55:00
3:15 AM,51.8,44.6,76,29.80,10.0,NNE,9.2,-,N/A,,Clear,30,2013-04-29 08:15:00
3:35 AM,51.8,44.6,76,29.81,10.0,NNE,8.1,-,N/A,,Clear,20,2013-04-29 08:35:00
3:55 AM,50.0,44.6,82,29.80,10.0,NNE,8.1,-,N/A,,Clear,30,2013-04-29 08:55:00
4:15 AM,50.0,42.8,76,29.80,10.0,NNE,10.4,17.3,N/A,,Clear,30,2013-04-29 09:15:00
4:35 AM,48.2,42.8,82,29.80,10.0,NE,10.4,-,N/A,,Clear,40,2013-04-29 09:35:00
4:55 AM,48.2,42.8,82,29.81,10.0,NNE,6.9,-,N/A,,Clear,30,2013-04-29 09:55:00
5:15 AM,48.2,41.0,76,29.81,10.0,NE,6.9,-,N/A,,Clear,40,2013-04-29 10:15:00
5:35 AM,46.4,39.2,76,29.81,10.0,NNE,6.9,-,N/A,,Clear,20,2013-04-29 10:35:00
5:55 AM,46.4,39.2,76,29.81,10.0,NNE,6.9,-,N/A,,Clear,20,2013-04-29 10:55:00
6:15 AM,46.4,39.2,76,29.81,10.0,NNE,8.1,-,N/A,,Scattered Clouds,30,2013-04-29 11:15:00
6:35 AM,46.4,37.4,71,29.81,10.0,NE,11.5,-,N/A,,Scattered Clouds,40,2013-04-29 11:35:00
6:55 AM,46.4,37.4,71,29.81,10.0,NE,12.7,-,N/A,,Clear,40,2013-04-29 11:55:00
7:15 AM,46.4,37.4,71,29.82,10.0,NE,8.1,-,N/A,,Clear,40,2013-04-29 12:15:00
7:35 AM,46.4,35.6,66,29.82,10.0,NNE,8.1,-,N/A,,Clear,30,2013-04-29 12:35:00
7:55 AM,46.4,35.6,66,29.83,10.0,NE,5.8,-,N/A,,Clear,40,2013-04-29 12:55:00
8:15 AM,48.2,37.4,66,29.81,10.0,NE,8.1,-,N/A,,Scattered Clouds,50,2013-04-29 13:15:00
8:35 AM,48.2,37.4,66,29.80,10.0,ENE,10.4,-,N/A,,Clear,60,2013-04-29 13:35:00
8:55 AM,50.0,37.4,62,29.79,10.0,ENE,9.2,-,N/A,,Clear,60,2013-04-29 13:55:00
9:15 AM,51.8,37.4,58,29.78,10.0,ENE,10.4,-,N/A,,Clear,60,2013-04-29 14:15:00
9:35 AM,55.4,39.2,54,29.77,10.0,NE,9.2,-,N/A,,Clear,50,2013-04-29 14:35:00
9:55 AM,55.4,39.2,54,29.77,10.0,ENE,5.8,-,N/A,,Clear,70,2013-04-29 14:55:00
10:15 AM,57.2,41.0,55,29.76,10.0,ENE,5.8,-,N/A,,Clear,70,2013-04-29 15:15:00
10:35 AM,60.8,42.8,52,29.75,10.0,NE,8.1,-,N/A,,Clear,50,2013-04-29 15:35:00
10:55 AM,62.6,44.6,52,29.74,10.0,East,9.2,-,N/A,,Clear,80,2013-04-29 15:55:00
11:15 AM,64.4,44.6,49,29.73,10.0,SE,8.1,-,N/A,,Clear,130,2013-04-29 16:15:00
11:35 AM,64.4,46.4,52,29.73,10.0,ESE,5.8,-,N/A,,Clear,120,2013-04-29 16:35:00
11:55 AM,66.2,46.4,49,29.71,10.0,East,6.9,-,N/A,,Clear,100,2013-04-29 16:55:00
12:15 PM,68.0,46.4,46,29.69,10.0,ESE,8.1,-,N/A,,Clear,110,2013-04-29 17:15:00
12:35 PM,69.8,46.4,43,29.68,10.0,ESE,6.9,-,N/A,,Clear,110,2013-04-29 17:35:00
12:55 PM,71.6,46.4,41,29.69,10.0,SSE,8.1,-,N/A,,Clear,150,2013-04-29 17:55:00
1:15 PM,71.6,46.4,41,29.69,10.0,South,9.2,17.3,N/A,,Clear,180,2013-04-29 18:15:00
1:35 PM,71.6,46.4,41,29.69,10.0,SSE,10.4,-,N/A,,Clear,160,2013-04-29 18:35:00
1:55 PM,73.4,44.6,36,29.68,10.0,South,6.9,-,N/A,,Clear,180,2013-04-29 18:55:00
2:15 PM,75.2,44.6,34,29.66,10.0,SE,8.1,-,N/A,,Clear,140,2013-04-29 19:15:00
2:35 PM,75.2,44.6,34,29.65,10.0,South,10.4,17.3,N/A,,Clear,180,2013-04-29 19:35:00
2:55 PM,75.2,44.6,34,29.65,10.0,South,8.1,20.7,N/A,,Clear,170,2013-04-29 19:55:00
3:15 PM,77.0,44.6,32,29.64,10.0,SSW,9.2,-,N/A,,Clear,210,2013-04-29 20:15:00
3:35 PM,78.8,42.8,28,29.63,10.0,SSW,10.4,-,N/A,,Clear,200,2013-04-29 20:35:00
3:55 PM,78.8,42.8,28,29.62,10.0,SW,8.1,-,N/A,,Clear,230,2013-04-29 20:55:00
4:15 PM,78.8,42.8,28,29.61,10.0,SSW,6.9,-,N/A,,Clear,210,2013-04-29 21:15:00
4:35 PM,78.8,42.8,28,29.60,10.0,WSW,8.1,-,N/A,,Clear,240,2013-04-29 21:35:00
4:55 PM,80.6,41.0,24,29.59,10.0,SW,6.9,-,N/A,,Clear,220,2013-04-29 21:55:00
5:15 PM,78.8,41.0,26,29.58,10.0,South,5.8,-,N/A,,Clear,170,2013-04-29 22:15:00
5:35 PM,80.6,42.8,26,29.57,10.0,SSW,6.9,-,N/A,,Clear,200,2013-04-29 22:35:00
5:55 PM,80.6,41.0,24,29.56,10.0,SSW,6.9,17.3,N/A,,Clear,210,2013-04-29 22:55:00
6:15 PM,78.8,39.2,24,29.55,10.0,South,11.5,-,N/A,,Clear,190,2013-04-29 23:15:00
6:35 PM,78.8,39.2,24,29.55,10.0,SSW,10.4,-,N/A,,Clear,200,2013-04-29 23:35:00
6:55 PM,78.8,39.2,24,29.54,10.0,South,6.9,-,N/A,,Clear,190,2013-04-29 23:55:00
7:15 PM,75.2,41.0,29,29.54,10.0,South,4.6,-,N/A,,Clear,190,2013-04-30 00:15:00
7:35 PM,75.2,42.8,31,29.53,10.0,South,3.5,-,N/A,,Clear,180,2013-04-30 00:35:00
7:55 PM,73.4,42.8,33,29.53,7.0,SSE,6.9,-,N/A,,Clear,150,2013-04-30 00:55:00
8:15 PM,73.4,42.8,33,29.52,10.0,SSE,6.9,-,N/A,,Clear,150,2013-04-30 01:15:00
8:35 PM,71.6,42.8,35,29.52,10.0,SE,8.1,-,N/A,,Clear,140,2013-04-30 01:35:00
8:55 PM,71.6,42.8,35,29.52,10.0,SE,5.8,-,N/A,,Clear,130,2013-04-30 01:55:00
9:15 PM,69.8,44.6,40,29.52,10.0,SE,4.6,-,N/A,,Clear,130,2013-04-30 02:15:00
9:35 PM,69.8,44.6,40,29.51,10.0,SE,6.9,-,N/A,,Clear,130,2013-04-30 02:35:00
9:55 PM,68.0,44.6,43,29.51,10.0,SE,8.1,-,N/A,,Clear,140,2013-04-30 02:55:00
10:35 PM,66.2,42.8,43,29.49,10.0,SE,8.1,-,N/A,,Clear,140,2013-04-30 03:35:00
10:55 PM,66.2,42.8,43,29.48,10.0,SSE,8.1,-,N/A,,Clear,150,2013-04-30 03:55:00
11:15 PM,66.2,44.6,46,29.47,10.0,SSE,10.4,-,N/A,,Clear,160,2013-04-30 04:15:00
11:35 PM,66.2,44.6,46,29.46,10.0,SSE,11.5,-,N/A,,Clear,150,2013-04-30 04:35:00
11:55 PM,66.2,44.6,46,29.44,10.0,SSE,12.7,-,N/A,,Clear,150,2013-04-30 04:55:00